FW0268 Weather Reports


Display with metric or nautical units.
time (UTC)temp
F
wind
direction
speed
MPH
gust
MPH
rain 1hr
in
rain 24hr
in
rain mn
in
humidity
%
barometer
mb
20260504050556 47 178 0.0 0.0 0.00 0.00 0.00 70 1014.6
20260504045557 47 178 0.0 0.0 0.00 0.00 0.00 71 1014.4
20260504045053 47 178 0.0 0.0 0.00 0.00 0.00 71 1014.3
20260504044553 47 178 0.0 0.0 0.00 0.00 0.00 72 1014.3
20260504044052 47 178 0.0 0.0 0.00 0.00 0.00 71 1014.3
20260504043551 47 178 0.0 0.0 0.00 0.00 0.00 71 1014.2
20260504043110 47 178 0.0 0.0 0.00 0.00 0.00 70 1014.0
20260504042550 47 178 0.0 0.0 0.00 0.00 0.00 70 1014.1
20260504042052 47 178 0.0 0.0 0.00 0.00 0.00 70 1014.1
20260504041549 47 178 0.0 0.0 0.00 0.00 0.00 71 1014.1
20260504041048 46 178 0.0 0.0 0.00 0.00 0.00 71 1014.2
20260504040551 46 178 0.0 0.0 0.00 0.00 0.00 70 1014.2
20260504040047 46 178 0.0 0.0 0.00 0.00 0.00 71 1014.2
20260504035547 46 178 0.0 0.0 0.00 0.00 0.00 71 1014.2
20260504035047 46 178 0.0 0.0 0.00 0.00 0.00 71 1014.2
20260504034551 46 178 0.0 0.0 0.00 0.00 0.00 70 1014.2
20260504034047 46 178 0.0 0.0 0.00 0.00 0.00 70 1014.2
20260504033545 46 178 0.0 0.0 0.00 0.00 0.00 69 1014.1
20260504033046 47 178 0.0 0.0 0.00 0.00 0.00 68 1014.1
20260504032545 47 178 0.0 0.0 0.00 0.00 0.00 68 1014.2
20260504032046 47 178 0.0 0.0 0.00 0.00 0.00 69 1014.1
20260504031551 47 178 0.0 0.0 0.00 0.00 0.00 68 1014.1
20260504031047 47 178 0.0 0.0 0.00 0.00 0.00 67 1014.1
20260504030545 48 178 0.0 0.0 0.00 0.00 0.00 67 1014.1
20260504030101 48 178 0.0 0.0 0.00 0.00 0.00 67 1014.2
20260504025544 48 178 0.0 0.0 0.00 0.00 0.00 65 1014.2
20260504025044 48 178 0.0 0.0 0.00 0.00 0.00 64 1014.2
20260504024544 49 178 0.0 0.0 0.00 0.00 0.00 64 1014.1
20260504024044 49 178 0.0 0.0 0.00 0.00 0.00 63 1014.3
20260504023544 49 178 0.0 0.0 0.00 0.00 0.00 63 1014.2
20260504023044 49 178 0.0 0.0 0.00 0.00 0.00 61 1014.3
20260504022543 49 178 0.0 0.0 0.00 0.00 0.00 61 1014.1
20260504022045 50 178 0.0 0.0 0.00 0.00 0.00 60 1014.0
20260504021547 50 178 0.0 0.0 0.00 0.00 0.00 60 1014.1
20260504021045 50 178 0.0 0.0 0.00 0.00 0.00 59 1014.0
20260504020543 50 178 0.0 0.0 0.00 0.00 0.00 58 1013.9
20260504020042 51 178 0.0 0.0 0.00 0.00 0.00 57 1013.8
20260504015542 51 178 0.0 0.0 0.00 0.00 0.00 58 1013.7
20260504015042 51 178 0.0 0.0 0.00 0.00 0.00 58 1013.7
20260504014541 51 178 0.0 0.0 0.00 0.00 0.00 56 1013.7
20260504014041 51 178 0.0 0.0 0.00 0.00 0.00 56 1013.6
20260504013545 51 178 0.0 0.0 0.00 0.00 0.00 57 1013.5
20260504013047 52 178 0.0 0.0 0.00 0.00 0.00 56 1013.4
20260504012541 52 178 0.0 0.0 0.00 0.00 0.00 57 1013.5
20260504012041 52 178 0.0 0.0 0.00 0.00 0.00 56 1013.4
20260504011541 52 178 0.0 0.0 0.00 0.00 0.00 55 1013.3
20260504011044 53 178 0.0 0.0 0.00 0.00 0.00 53 1013.2
20260504010540 53 178 0.0 0.0 0.00 0.00 0.00 52 1013.3
20260504010051 53 178 0.0 1.0 0.00 0.00 0.00 52 1013.1
20260504005540 54 178 0.0 1.0 0.00 0.00 0.00 51 1013.1
20260504005040 54 178 0.0 1.0 0.00 0.00 0.00 49 1013.1
20260504004544 54 178 0.0 1.0 0.00 0.00 0.00 48 1013.0
20260504004041 55 178 0.0 0.0 0.00 0.00 0.00 48 1012.9
20260504003540 55 178 0.0 0.0 0.00 0.00 0.00 49 1012.9
20260504003039 56 178 0.0 0.0 0.00 0.00 0.00 46 1012.8
20260504002539 56 178 0.0 0.0 0.00 0.00 0.00 45 1012.8
20260504002039 57 178 0.0 0.0 0.00 0.00 0.00 43 1012.8
20260504001541 58 178 0.0 0.0 0.00 0.00 0.00 44 1012.8
20260504001039 58 178 0.0 0.0 0.00 0.00 0.00 42 1012.8
20260504000538 59 178 0.0 0.0 0.00 0.00 0.00 40 1012.9
20260504000038 59 178 0.0 0.0 0.00 0.00 0.00 39 1012.8
20260503235538 60 178 0.0 0.0 0.00 0.00 0.00 39 1012.8
20260503235038 60 178 0.0 0.0 0.00 0.00 0.00 37 1012.8
20260503234541 61 178 0.0 0.0 0.00 0.00 0.00 36 1012.8
20260503234041 61 178 0.0 0.0 0.00 0.00 0.00 35 1012.7
20260503233539 61 178 0.0 0.0 0.00 0.00 0.00 33 1012.8
20260503233037 61 178 0.0 2.0 0.00 0.00 0.00 32 1012.8
20260503232537 62 224 0.0 2.0 0.00 0.00 0.00 30 1012.7
20260503232037 62 224 0.0 2.0 0.00 0.00 0.00 30 1012.7
20260503231537 62 225 0.0 2.0 0.00 0.00 0.00 31 1012.7
20260503231040 62 225 0.0 2.0 0.00 0.00 0.00 30 1012.7
20260503230537 62 225 0.0 3.0 0.00 0.00 0.00 31 1012.6
20260503230057 62 225 0.0 3.0 0.00 0.00 0.00 29 1012.5
20260503225535 62 131 0.0 4.0 0.00 0.00 0.00 29 1012.6
20260503225035 63 209 1.0 4.0 0.00 0.00 0.00 28 1012.7
20260503224535 63 323 0.0 3.0 0.00 0.00 0.00 29 1012.6
20260503224036 63 168 1.0 5.0 0.00 0.00 0.00 28 1012.8
20260503223534 63 130 1.0 5.0 0.00 0.00 0.00 28 1012.7
20260503223034 63 134 1.0 4.0 0.00 0.00 0.00 29 1012.7
20260503222533 63 131 1.0 5.0 0.00 0.00 0.00 29 1012.7
20260503222033 64 282 1.0 5.0 0.00 0.00 0.00 27 1012.7
20260503221536 64 166 1.0 4.0 0.00 0.00 0.00 28 1012.8
20260503221035 64 5 0.0 5.0 0.00 0.00 0.00 27 1012.9
20260503220533 64 229 0.0 5.0 0.00 0.00 0.00 29 1012.9
20260503220037 64 184 0.0 8.0 0.00 0.00 0.00 29 1012.8
20260503215533 64 184 2.0 8.0 0.00 0.00 0.00 27 1012.8
20260503215032 64 155 1.0 4.0 0.00 0.00 0.00 28 1012.9
20260503214546 64 284 1.0 8.0 0.00 0.00 0.00 27 1012.9
20260503214033 64 145 2.0 8.0 0.00 0.00 0.00 29 1013.0
20260503213533 64 320 0.0 4.0 0.00 0.00 0.00 29 1013.0
20260503213034 64 202 1.0 5.0 0.00 0.00 0.00 31 1013.1
20260503212532 64 160 1.0 5.0 0.00 0.00 0.00 33 1013.1
20260503212031 65 205 0.0 4.0 0.00 0.00 0.00 32 1013.2
20260503211532 65 226 1.0 6.0 0.00 0.00 0.00 27 1013.2
20260503211031 65 13 0.0 6.0 0.00 0.00 0.00 25 1013.2
20260503210531 65 220 0.0 5.0 0.00 0.00 0.00 25 1013.2
20260503210031 65 171 0.0 3.0 0.00 0.00 0.00 26 1013.3
20260503205531 65 24 1.0 5.0 0.00 0.00 0.00 27 1013.3
20260503205031 65 163 1.0 5.0 0.00 0.00 0.00 27 1013.3
20260503204531 65 231 1.0 2.0 0.00 0.00 0.00 27 1013.3
20260503204030 65 236 1.0 3.0 0.00 0.00 0.00 26 1013.3
20260503203529 65 158 0.0 5.0 0.00 0.00 0.00 26 1013.5
20260503203029 66 169 2.0 5.0 0.00 0.00 0.00 24 1013.6
20260503202529 66 229 1.0 4.0 0.00 0.00 0.00 26 1013.6
20260503202029 66 250 1.0 3.0 0.00 0.00 0.00 27 1013.6
20260503201528 67 221 0.0 5.0 0.00 0.00 0.00 25 1013.7
20260503201028 67 164 1.0 5.0 0.00 0.00 0.00 27 1013.7
20260503200528 67 141 1.0 5.0 0.00 0.00 0.00 26 1013.7
20260503200029 67 229 0.0 3.0 0.00 0.00 0.00 26 1013.9
20260503195528 68 14 1.0 3.0 0.00 0.00 0.00 24 1013.9
20260503195027 68 157 0.0 6.0 0.00 0.00 0.00 26 1013.9
20260503194529 68 157 1.0 6.0 0.00 0.00 0.00 24 1014.2
20260503194027 68 209 1.0 6.0 0.00 0.00 0.00 25 1014.4
20260503193527 68 203 1.0 10.0 0.00 0.00 0.00 24 1014.5
20260503193028 69 49 2.0 10.0 0.00 0.00 0.00 25 1014.4
20260503192527 69 202 1.0 4.0 0.00 0.00 0.00 25 1014.4
20260503192029 69 175 1.0 9.0 0.00 0.00 0.00 24 1014.5
20260503191526 69 20 2.0 9.0 0.00 0.00 0.00 25 1014.6
20260503191026 69 360 0.0 6.0 0.00 0.00 0.00 25 1014.5
20260503190527 69 182 1.0 6.0 0.00 0.00 0.00 25 1014.7
20260503190037 69 192 1.0 9.0 0.00 0.00 0.00 25 1014.7
20260503185525 69 28 0.0 9.0 0.00 0.00 0.00 24 1014.9
20260503185029 70 252 1.0 5.0 0.00 0.00 0.00 25 1015.0
20260503184525 69 355 1.0 5.0 0.00 0.00 0.00 26 1015.4
20260503184022 69 178 0.0 5.0 0.00 0.00 0.00 26 1015.2
20260503183522 68 165 2.0 5.0 0.00 0.00 0.00 26 1015.5
20260503183022 68 175 1.0 5.0 0.00 0.00 0.00 28 1015.5
20260503182521 68 145 1.0 3.0 0.00 0.00 0.00 27 1015.5
20260503182022 68 211 0.0 5.0 0.00 0.00 0.00 25 1015.6
20260503181541 68 193 1.0 6.0 0.00 0.00 0.00 25 1015.7
20260503181020 68 215 2.0 6.0 0.00 0.00 0.00 26 1015.8
20260503180519 68 111 1.0 4.0 0.00 0.00 0.00 27 1015.8
20260503180031 68 344 1.0 6.0 0.00 0.00 0.00 27 1015.9
20260503175521 67 134 1.0 6.0 0.00 0.00 0.00 27 1016.0
20260503175015 67 146 1.0 5.0 0.00 0.00 0.00 28 1015.9
20260503174514 67 205 1.0 5.0 0.00 0.00 0.00 29 1016.1
20260503174015 66 140 2.0 7.0 0.00 0.00 0.00 28 1016.1
20260503173511 66 141 2.0 7.0 0.00 0.00 0.00 29 1016.2
20260503173010 65 174 3.0 7.0 0.00 0.00 0.00 29 1016.2
20260503172508 65 154 1.0 7.0 0.00 0.00 0.00 29 1016.2
20260503172007 64 207 2.0 7.0 0.00 0.00 0.00 30 1016.4
20260503171506 64 58 1.0 6.0 0.00 0.00 0.00 29 1016.5
20260503171004 63 142 1.0 6.0 0.00 0.00 0.00 30 1016.9
20260503170503 63 14 2.0 7.0 0.00 0.00 0.00 31 1016.8
20260503150535 51 13 2.0 8.0 0.00 0.00 0.00 42 1018.0
20260503131014 45 169 1.0 6.0 0.00 0.00 0.00 56 1018.1
20260503130512 45 142 1.0 5.0 0.00 0.00 0.00 56 1017.9
20260503110554 39 127 0.0 1.0 0.00 0.00 0.00 78 1016.7
20260503081533 39 126 0.0 0.0 0.00 0.00 0.00 79 1014.3
20260503081035 39 126 0.0 0.0 0.00 0.00 0.00 79 1014.3
20260503080532 40 126 0.0 0.0 0.00 0.00 0.00 79 1014.1